TimeCDT,TemperatureF,Dew PointF,Humidity,Sea Level PressureIn,VisibilityMPH,Wind Direction,Wind SpeedMPH,Gust SpeedMPH,PrecipitationIn,Events,Conditions,WindDirDegrees,DateUTC
12:56 AM,53.1,32.0,45,29.81,10.0,South,15.0,-,N/A,,Clear,180,2011-11-01 05:56:00
1:56 AM,51.1,33.1,50,29.79,10.0,South,15.0,-,N/A,,Clear,190,2011-11-01 06:56:00
2:56 AM,50.0,34.0,54,29.78,10.0,SSW,11.5,-,N/A,,Clear,200,2011-11-01 07:56:00
3:56 AM,51.1,34.0,52,29.78,10.0,SSW,11.5,-,N/A,,Clear,210,2011-11-01 08:56:00
4:56 AM,48.9,34.0,56,29.79,10.0,SSW,5.8,-,N/A,,Clear,210,2011-11-01 09:56:00
5:56 AM,42.1,32.0,67,29.82,10.0,SW,3.5,-,N/A,,Clear,230,2011-11-01 10:56:00
6:56 AM,43.0,34.0,71,29.81,10.0,SW,8.1,-,N/A,,Clear,230,2011-11-01 11:56:00
8:56 AM,44.1,33.1,65,29.87,10.0,NW,9.2,-,N/A,,Clear,310,2011-11-01 13:56:00
9:56 AM,50.0,32.0,50,29.88,10.0,North,16.1,23.0,N/A,,Clear,350,2011-11-01 14:56:00
10:56 AM,54.0,33.1,45,29.88,10.0,North,16.1,27.6,N/A,,Clear,350,2011-11-01 15:56:00
11:56 AM,59.0,36.0,42,29.88,10.0,North,26.5,32.2,N/A,,Clear,10,2011-11-01 16:56:00
12:56 PM,60.1,37.0,42,29.88,10.0,North,21.9,28.8,N/A,,Clear,360,2011-11-01 17:56:00
1:56 PM,61.0,37.9,42,29.88,10.0,North,19.6,27.6,N/A,,Clear,360,2011-11-01 18:56:00
2:56 PM,61.0,37.0,41,29.88,10.0,NNE,21.9,26.5,N/A,,Clear,20,2011-11-01 19:56:00
3:56 PM,61.0,36.0,39,29.89,10.0,North,20.7,26.5,N/A,,Clear,10,2011-11-01 20:56:00
4:56 PM,61.0,32.0,34,29.91,10.0,North,18.4,24.2,N/A,,Clear,10,2011-11-01 21:56:00
5:56 PM,55.9,34.0,44,29.94,10.0,North,16.1,-,N/A,,Clear,350,2011-11-01 22:56:00
6:56 PM,51.1,35.1,54,29.99,10.0,North,13.8,-,N/A,,Clear,350,2011-11-01 23:56:00
7:56 PM,50.0,34.0,54,30.00,10.0,North,16.1,21.9,N/A,,Clear,350,2011-11-02 00:56:00
8:56 PM,48.9,34.0,56,30.03,10.0,North,12.7,-,N/A,,Clear,350,2011-11-02 01:56:00
9:56 PM,48.0,30.9,52,30.03,10.0,North,13.8,20.7,N/A,,Clear,360,2011-11-02 02:56:00
11:56 PM,46.9,28.0,48,30.06,10.0,North,13.8,25.3,N/A,,Clear,360,2011-11-02 04:56:00